[[{"header":{"parameterUnit":"m.s-1","parameterCategory":1,"la1":30.2991,"la2":30.254,"lo1":-89.0895,"lo2":-89.0444,"dx":0.0017,"dy":0.0017,"nx":28,"ny":28,"refTime":"2022-12-14T09:00:00:Z","depth":0,"parameterNumber":2,"parameterNumberName":"U-component_of_WINDS"},"data":[0,0,0,0,0,0,0,0,0,0,0,0,0,0,0,0,0,0,0,0,0,0,0,0,0,0,0,0,0,0,0,0,0,0,0,0,0,0,0,0,0,0,0,0,0,0,0,0,0,0,0,0,0,0,0,0,0,0,3.4619,3.462,0,3.4714,3.4715,3.4716,3.47,3.4698,3.4696,3.4695,3.4792,3.4796,3.48,0,0,0,0,0,0,0,0,0,0,0,0,0,3.4426,3.4429,3.4619,3.462,3.4621,3.4714,3.4715,3.4716,3.47,3.4698,3.4696,3.4694,3.4791,3.4795,3.48,0,0,0,0,0,0,0,0,0,0,0,0,0,3.4514,3.4431,3.4619,3.4624,3.4626,3.4713,3.4715,3.4716,3.47,3.4698,3.4696,3.4693,3.4789,3.4795,3.4801,3.4889,0,0,3.482,3.4823,0,0,0,0,0,0,0,0,3.4509,3.4521,3.4622,3.4624,3.4626,3.4692,3.4682,3.4774,3.4701,3.4672,3.4695,3.4692,3.4761,3.4769,3.4792,3.4893,3.4897,3.482,3.4824,3.4827,3.4829,0,0,0,0,0,0,0,3.4503,3.4517,3.4656,3.4624,3.4626,3.4623,3.4633,3.47,3.4729,3.4674,3.4674,3.4685,3.4761,3.4786,3.4794,3.4899,3.482,3.4826,3.483,3.4832,3.5079,3.5082,0,0,0,0,0,0,3.4495,3.4512,3.4653,3.4659,3.456,3.4628,3.4639,3.4674,3.4728,3.4734,3.4687,3.4684,3.4777,3.4787,3.4798,3.4906,3.4827,3.4833,3.4836,3.5076,3.508,3.5083,0,0,0,0,0,0,3.4491,3.4508,3.465,3.4585,3.4603,3.4634,3.4673,3.4677,3.4702,3.4738,3.4743,3.4707,3.4775,3.4789,3.4867,3.4909,3.4835,3.4841,3.5073,3.5077,3.5081,3.5121,0,0,0,0,0,0,3.4485,3.4506,3.4539,3.4586,3.4607,3.4717,3.4675,3.468,3.4713,3.4709,3.4758,3.4764,3.4775,3.4858,3.4873,3.4916,3.4846,3.5069,3.5075,3.508,3.5116,3.5126,3.5134,0,0,0,0,0,3.4479,3.4546,3.4541,3.4558,3.4649,3.4719,3.4731,3.4742,3.4716,3.475,3.4774,3.4762,3.4902,3.4866,3.4883,3.4928,3.5066,3.5073,3.5079,3.5112,3.5124,3.5134,0,0,0,0,0,0,3.4503,3.4552,3.4547,3.4632,3.4672,3.4716,3.4759,3.4754,3.4801,3.4796,3.4808,3.4819,3.4898,3.4921,3.488,3.5017,3.4981,3.4991,3.4999,3.5011,3.502,3.5013,3.4851,0,0,0,0,0,3.4518,3.4571,3.4611,3.4683,3.4703,3.4728,3.4759,3.4764,3.4805,3.4822,3.4851,3.4891,3.4944,3.4979,3.503,3.5119,3.513,3.5159,3.5168,3.5176,3.5184,3.5235,3.5249,3.5104,3.5104,3.5104,0,0,3.455,3.4584,3.4616,3.4688,3.4719,3.4775,3.4742,3.4801,3.4842,3.483,3.4906,3.4929,3.4975,3.506,3.5098,3.5081,3.5227,3.5184,3.519,3.5194,3.5243,3.5257,3.5269,3.5108,3.5107,3.5107,0,0,3.4637,3.4667,3.4731,3.4763,3.4811,3.4828,3.4843,3.4889,3.4904,3.498,3.4973,3.5023,3.5113,3.5147,3.5176,3.5279,3.5271,3.5295,3.5343,3.5393,3.5404,3.5415,3.5452,3.5465,3.5303,3.5303,3.5303,0,3.4671,3.4753,3.4764,3.4825,3.4857,3.485,3.4915,3.4946,3.5008,3.5031,3.5011,3.5126,3.5156,3.525,3.5275,3.5298,3.5317,3.5289,3.5402,3.5412,3.5422,3.5458,3.5472,3.5306,3.5306,3.5305,3.5305,0,3.4793,3.4851,3.4896,3.4957,3.4995,3.5057,3.5078,3.5115,3.5118,3.5137,3.5215,3.5252,3.5311,3.5334,3.5336,3.5428,3.5416,3.5399,3.5362,3.5438,3.5472,3.5486,3.531,3.5309,3.5308,3.5307,0,0,3.4897,3.4964,3.4981,3.5009,3.5063,3.5107,3.517,3.5228,3.5261,3.5304,3.5358,3.5436,3.5421,3.5454,3.5461,3.5504,3.5585,3.5482,3.5483,3.5501,3.569,3.5703,3.5719,3.558,3.5583,3.5585,3.5687,0,3.4989,3.51,3.5113,3.5212,3.5266,3.5261,3.5316,3.5355,3.5376,3.5425,3.5447,3.5503,3.5478,3.5498,3.5541,3.5566,3.5623,3.5559,3.5631,3.5634,3.562,3.5737,3.575,3.5844,3.57,3.5702,3.5704,0,3.5111,3.5159,3.5264,3.5312,3.5335,3.5384,3.544,3.5487,3.5532,3.5543,3.5582,3.5583,3.5649,3.5611,3.5703,3.5659,3.5689,3.5706,3.571,3.5718,3.5673,3.5748,3.5874,3.5889,3.5725,3.5723,3.5722,0,3.5178,3.5269,3.5344,3.5368,3.5425,3.546,3.5486,3.5528,3.5563,3.5612,3.5635,3.569,3.5721,3.5765,3.5782,3.5752,3.5874,3.5836,3.5886,3.5886,3.5912,3.591,3.6046,3.5931,3.593,3.593,3.593,0,3.528,3.5345,3.5375,3.5421,3.5493,3.5508,3.558,3.5604,3.5642,3.5694,3.5693,3.5741,3.5761,3.5813,3.5827,3.5902,3.5915,3.5927,3.593,3.5928,3.5926,3.5948,3.5942,3.5934,3.5933,3.5932,3.5932,0,3.5366,3.5389,3.547,3.5519,3.5532,3.5584,3.5626,3.5671,3.5691,3.5756,3.5772,3.5804,3.5865,3.5887,3.5961,3.5971,3.6058,3.6055,3.6043,3.6044,3.6093,3.6089,3.6248,3.627,3.614,3.6141,3.6142,0,3.543,3.548,3.5534,3.5569,3.5596,3.5651,3.5687,3.5704,3.5742,3.5798,3.5837,3.5898,3.5948,3.6046,3.6076,3.6133,3.6132,3.6184,3.6141,3.6137,3.6134,3.6131,3.6137,3.6192,3.6194,3.6195,3.6196,0,3.5542,3.5551,3.5603,3.5659,3.5703,3.5748,3.5791,3.582,3.5843,3.5886,3.5949,3.5988,3.6064,3.6125,3.6185,3.6211,3.6208,3.6209,3.6224,3.6222,3.6213,3.622,3.6066,3.6205,3.6204,3.6204,3.6203,3.6203,3.562,3.5664,3.571,3.5768,3.5803,3.5845,3.589,3.5917,3.5969,3.6033,3.604,3.6108,3.6154,3.6233,3.6263,3.6317,3.6303,3.6324,3.633,3.6335,3.6339,3.6205,3.6328,3.6328,3.6328,3.6327,3.6327,0,3.5732,3.5762,3.5815,3.5877,3.5923,3.5917,3.5965,3.6005,3.6065,3.6108,3.6157,3.6231,3.629,3.6326,3.6386,3.6423,3.6423,3.6438,3.6436,3.6443,3.6348,3.633,3.6437,3.6437,3.6437,3.6437,3.6437,3.6437,3.5796,3.5872,3.5887,3.5981,3.601,3.6077,3.6106,3.6144,3.6179,3.6261,3.6311,3.6334,3.6374,3.6438,3.6493,3.6502,3.6525,3.6541,3.6549,3.646,3.6449,3.6438,3.6421,3.6546,3.6546,3.6639,3.664,3.6641]},{"header":{"parameterUnit":"m.s-1","parameterCategory":1,"la1":30.2991,"la2":30.254,"lo1":-89.0895,"lo2":-89.0444,"dx":0.0017,"dy":0.0017,"nx":28,"ny":28,"refTime":"2022-12-14T09:00:00:Z","depth":0,"parameterNumber":3,"parameterNumberName":"V-component_of_WINDS"},"data":[0,0,0,0,0,0,0,0,0,0,0,0,0,0,0,0,0,0,0,0,0,0,0,0,0,0,0,0,0,0,0,0,0,0,0,0,0,0,0,0,0,0,0,0,0,0,0,0,0,0,0,0,0,0,0,0,0,0,-3.9912,-3.9914,0,-4.0053,-4.0055,-4.0056,-4.0064,-4.0063,-4.0061,-4.006,-4.0203,-4.0208,-4.0214,0,0,0,0,0,0,0,0,0,0,0,0,0,-3.9651,-3.9656,-3.9912,-3.9914,-3.9915,-4.0053,-4.0055,-4.0057,-4.0065,-4.0063,-4.0061,-4.0059,-4.0202,-4.0208,-4.0214,0,0,0,0,0,0,0,0,0,0,0,0,0,-3.9775,-3.9657,-3.9912,-3.9936,-3.994,-4.0052,-4.0055,-4.0057,-4.0065,-4.0063,-4.006,-4.0058,-4.0199,-4.0207,-4.0215,-4.0313,0,0,-4.024,-4.0243,0,0,0,0,0,0,0,0,-3.9768,-3.9785,-3.9931,-3.9935,-3.9939,-4.0039,-4.0015,-4.0143,-4.0066,-4.0017,-4.006,-4.0057,-4.015,-4.0162,-4.0194,-4.0319,-4.0326,-4.024,-4.0245,-4.0248,-4.0251,0,0,0,0,0,0,0,-3.976,-3.9779,-3.9968,-3.9933,-3.9938,-3.994,-3.9955,-4.004,-4.0096,-4.0022,-4.0022,-4.0039,-4.0152,-4.0186,-4.0197,-4.0328,-4.024,-4.0247,-4.0252,-4.0255,-4.0543,-4.0546,0,0,0,0,0,0,-3.9746,-3.9772,-3.9963,-3.9972,-3.9846,-3.9947,-3.9964,-4.0009,-4.0095,-4.0106,-4.0041,-4.0039,-4.0174,-4.0188,-4.0203,-4.0324,-4.0248,-4.0256,-4.026,-4.054,-4.0544,-4.0547,0,0,0,0,0,0,-3.9741,-3.9763,-3.9958,-3.9872,-3.9897,-3.9954,-4.0005,-4.0013,-4.0047,-4.011,-4.012,-4.0065,-4.0173,-4.0191,-4.0286,-4.0329,-4.026,-4.0267,-4.0537,-4.0541,-4.0545,-4.0567,0,0,0,0,0,0,-3.9733,-3.9761,-3.9798,-3.9873,-3.9902,-4.0038,-4.0007,-4.0018,-4.0061,-4.006,-4.0135,-4.0145,-4.0172,-4.0274,-4.0294,-4.0339,-4.0273,-4.0533,-4.0539,-4.0544,-4.0563,-4.0572,-4.0579,0,0,0,0,0,-3.9724,-3.9798,-3.98,-3.9823,-3.9949,-4.0041,-4.0057,-4.0086,-4.0064,-4.0103,-4.0143,-4.0143,-4.0321,-4.0284,-4.0306,-4.0354,-4.053,-4.0537,-4.0543,-4.0559,-4.057,-4.0579,0,0,0,0,0,0,-3.9727,-3.9808,-3.9811,-3.9912,-3.997,-4.0042,-4.0091,-4.0097,-4.0161,-4.0157,-4.0191,-4.0208,-4.0302,-4.0337,-4.0294,-4.0454,-4.0423,-4.0435,-4.0428,-4.0439,-4.0447,-4.0436,-4.028,0,0,0,0,0,-3.9739,-3.9806,-3.9874,-3.9957,-3.9985,-4.0033,-4.0074,-4.0092,-4.0153,-4.0177,-4.0224,-4.0283,-4.0352,-4.0397,-4.0464,-4.0568,-4.0585,-4.0612,-4.062,-4.0627,-4.0636,-4.0696,-4.0709,-4.0568,-4.0568,-4.0568,0,0,-3.9765,-3.9818,-3.9858,-3.9959,-4.0005,-4.0075,-4.0053,-4.0127,-4.018,-4.0188,-4.0281,-4.0318,-4.0386,-4.0486,-4.0532,-4.0518,-4.068,-4.0635,-4.064,-4.0646,-4.0704,-4.0717,-4.0729,-4.0572,-4.0571,-4.0571,0,0,-3.9849,-3.9895,-3.997,-4.0017,-4.0089,-4.012,-4.0138,-4.0211,-4.0236,-4.0329,-4.0338,-4.0401,-4.0519,-4.0568,-4.0608,-4.0713,-4.0716,-4.0734,-4.0777,-4.0834,-4.0846,-4.0856,-4.0895,-4.0908,-4.0743,-4.0743,-4.0743,0,-3.9872,-3.9977,-4.0007,-4.0082,-4.0127,-4.0138,-4.0215,-4.026,-4.0349,-4.038,-4.0363,-4.0514,-4.056,-4.0673,-4.0699,-4.073,-4.0753,-4.0725,-4.0841,-4.0852,-4.0862,-4.0899,-4.0914,-4.0745,-4.0744,-4.0744,-4.0744,0,-4.0004,-4.0076,-4.0128,-4.0216,-4.0266,-4.0341,-4.0383,-4.0431,-4.0445,-4.0479,-4.0575,-4.0632,-4.0712,-4.074,-4.0753,-4.0855,-4.0845,-4.0834,-4.0804,-4.0877,-4.0913,-4.0927,-4.0747,-4.0747,-4.0746,-4.0746,0,0,-4.0092,-4.0196,-4.0215,-4.0256,-4.0336,-4.0393,-4.047,-4.0548,-4.0589,-4.0651,-4.0717,-4.0818,-4.081,-4.0855,-4.0875,-4.0926,-4.1007,-4.091,-4.0912,-4.0927,-4.1125,-4.1133,-4.1149,-4.101,-4.1013,-4.1015,-4.112,0,-4.0185,-4.0322,-4.0352,-4.047,-4.0539,-4.0552,-4.0619,-4.0676,-4.071,-4.0774,-4.0811,-4.0883,-4.0866,-4.0894,-4.0945,-4.0987,-4.1048,-4.0979,-4.1072,-4.1075,-4.1056,-4.1168,-4.1176,-4.1273,-4.1134,-4.1136,-4.1138,0,-4.0312,-4.0378,-4.0503,-4.0577,-4.0607,-4.0666,-4.0742,-4.0802,-4.0868,-4.0889,-4.0942,-4.0957,-4.1038,-4.1004,-4.1117,-4.107,-4.111,-4.1136,-4.1141,-4.1151,-4.1111,-4.1182,-4.1304,-4.1319,-4.116,-4.1159,-4.1157,0,-4.0366,-4.0486,-4.0577,-4.0611,-4.0698,-4.074,-4.0779,-4.0842,-4.0888,-4.0955,-4.0985,-4.106,-4.1101,-4.1159,-4.1194,-4.1166,-4.1306,-4.1273,-4.1327,-4.1326,-4.1356,-4.1354,-4.1487,-4.138,-4.1379,-4.1379,-4.1379,0,-4.0468,-4.0544,-4.0603,-4.0658,-4.0745,-4.078,-4.0864,-4.0903,-4.0959,-4.1024,-4.1039,-4.1099,-4.1142,-4.1208,-4.1236,-4.1327,-4.1345,-4.1365,-4.1372,-4.1365,-4.1362,-4.1392,-4.1387,-4.1383,-4.1382,-4.1381,-4.1381,0,-4.0543,-4.0584,-4.0685,-4.076,-4.0781,-4.0841,-4.0906,-4.0962,-4.0996,-4.1078,-4.1099,-4.1154,-4.1233,-4.1274,-4.1373,-4.1392,-4.1494,-4.1496,-4.1472,-4.1475,-4.1527,-4.1522,-4.1684,-4.1708,-4.1584,-4.1585,-4.1586,0,-4.0605,-4.0664,-4.0747,-4.0791,-4.0831,-4.0902,-4.095,-4.0987,-4.1036,-4.1116,-4.1163,-4.1243,-4.1309,-4.1435,-4.1484,-4.156,-4.1565,-4.1617,-4.1576,-4.1568,-4.1568,-4.1564,-4.1571,-4.1624,-4.1625,-4.1626,-4.1627,0,-4.0712,-4.0731,-4.0799,-4.0876,-4.0932,-4.0994,-4.1055,-4.1091,-4.1138,-4.1193,-4.1274,-4.1326,-4.1427,-4.1507,-4.1588,-4.1628,-4.1636,-4.1639,-4.1656,-4.1649,-4.1634,-4.1645,-4.1493,-4.1635,-4.1634,-4.1634,-4.1633,-4.1633,-4.0784,-4.0838,-4.0905,-4.0981,-4.1032,-4.1089,-4.1145,-4.1188,-4.1257,-4.1343,-4.1361,-4.1447,-4.1514,-4.1622,-4.1665,-4.1734,-4.1723,-4.1747,-4.1753,-4.1759,-4.1762,-4.1622,-4.1749,-4.1748,-4.1748,-4.1748,-4.1748,0,-4.0893,-4.0938,-4.1007,-4.1093,-4.1154,-4.1156,-4.1225,-4.1275,-4.1352,-4.1413,-4.1478,-4.1573,-4.1651,-4.1707,-4.1787,-4.1832,-4.1838,-4.1852,-4.1849,-4.1859,-4.1766,-4.1745,-4.1846,-4.1846,-4.1846,-4.1846,-4.1846,-4.1846,-4.0958,-4.105,-4.1077,-4.1195,-4.1239,-4.1324,-4.1363,-4.1417,-4.1466,-4.1572,-4.1637,-4.1673,-4.1733,-4.1818,-4.189,-4.1905,-4.1934,-4.1948,-4.1963,-4.1875,-4.1865,-4.1855,-4.1835,-4.1954,-4.1954,-4.205,-4.2051,-4.2052]}]]